Погода в Шилке

Погода в Шилке : погода сейчас, прогноз погоды и архив. Всё, что Вы хотите узнать о погоде в Шилке!

Хотите узнать прогноз погоды в Шилке? Тогда Вам сюда: Погода в Шилке

Поиск расширенной информации на нашем сайте:

Другие новости

Новости СМИ2

Главная страница сайта

Новости сайта

03.07.2017

Напоминаем, что на нашем специализированном сайте Метеоцентр.Азия вы можете получить высокодетализированные автоматические прогнозы погоды по пунктам России, СНГ и мира в авиационном формате (включающие направление и скорость ветра, видимость, явления погоды, количество и форму облачности, нижнюю и верхнюю границу облачности).


Погода в Шилке - сегодня

Время (UTC), дата Ветер
(°,м/с) 
Видим.   Явления Облачность Т
(°С)
Тd
(°С)
f(%) Тe
(°С)
Pmin
(гПа)
dP
(гПа)
Po
(мм)
O2
(г/м3)
Тmin Tmax R s Состояние
почвы
15 16.10.18 240 (ЮЗ) н/о    ясно 
-1.8 -8.5 60 -1  1028.8  0.2  716  291           
18 16.10.18 250 (З) 50000 м    ясно 
-5 -8.5 76 -7  1029.2  -0.5  716  295           
21 16.10.18 250 (З) 50000 м    3/0 средняя 
[Ac trans]
-6 -8.5 82 -9  1029.1  -0.3  716  296           
03 17.10.18 230 (ЮЗ) 20000 м    4/0 верхняя 
[Ci fib]
+6.1 -7.5 37 +5  1025.2  -0.8  715  283           
06 17.10.18 240 (ЮЗ) 5{10}  20000 м    1/0 верхняя 
[Ci fib]
+11.4 -9.1 23 +10  1022  -1.6  714  277           
09 17.10.18 230 (ЮЗ) 20000 м    1/0 верхняя 
[Ci fib]
+9.7 -10.8 22 +10  1021.9  -0.6  713  279           
12 17.10.18 250 (З) 50000 м    ясно 
+4.9 -9.4 35 +4  1023.8  0.6  714  283    +12       
15 17.10.18 270 (З) 50000 м    ясно 
+2.3 -7.6 48 +1  1024.5  714  286           
18 17.10.18 270 (З) 50000 м    ясно 
-0.4 -7.4 59 -2  1025.5  0.2  714  289           
21 17.10.18 240 (ЮЗ) н/о    н/о 
-2.1 -7.3 67 -5  1025.7  -0.3  714  291           
00 18.10.18 230 (ЮЗ) 20000 м    ясно 
-2.2 -6.5 72 -5  1025.9  0.1  714  291  -4.1         
03 18.10.18 250 (З) 20000 м    4/0 верхняя 
[Ci fib]
+7.8 -7 34 +6  1023.1  0.1  714  280           
06 18.10.18 240 (ЮЗ) 20000 м    8/0 средняя, верхняя 
[Ac trans|Ci fib]
+13.9 -5.2 26 +13  1019.1  -2.3  712  274           
09 18.10.18 230 (ЮЗ) 4{10}  20000 м    9/0 средняя, верхняя 
[Ac trans|Ci fib]
+12.8 -5.3 28 +12  1018.6  -0.7  712  274           
15 18.10.18 230 (ЮЗ) 40000 м    6/0 верхняя 
[Ci fib]
+5.7 -5.2 45 +5  1021.7  0.6  713  282           
18 18.10.18 230 (ЮЗ) 40000 м    6/0 верхняя 
[Ci fib]
+2.2 -5 59 +1  1022.6  0.1  713  285           
21 18.10.18 250 (З) 50000 м    4/0 верхняя 
[Ci fib]
+0.1 -5 69 -2  1023.3  0.2  713  288           
03 19.10.18 240 (ЮЗ) 20000 м    8/0 средняя, верхняя 
[Ac trans|Ci fib]
+10 -5.7 33 +9  1020.6  -0.2  713  278           
06 19.10.18 230 (ЮЗ) 7{10}  20000 м    6/0 средняя, верхняя 
[Ac trans|Ci fib]
+16.1 -6.9 20 +16  1016.7  -2.3  711  271           
09 19.10.18 230 (ЮЗ) 20000 м    5/0 средняя, верхняя 
[Ac trans|Ci fib]
+13.6 -7.3 23 +14  1016.4  -0.8  710  273           
15 19.10.18 210 (ЮЗ) 50000 м    3/0 верхняя 
[Ci fib]
+4.4 -6.2 46 +4  1019.3  0.2  711  282           
18 19.10.18 280 (З) 50000 м    3/0 верхняя 
[Ci fib]
-1.9 -7.2 67 -3  1020.7  -0.3  710  289           
21 19.10.18 250 (З) 50000 м    ясно 
-3.6 -7.4 75 -3  1020.8  -0.3  710  291           
03 20.10.18 250 (З) 20000 м    ясно 
+6.5 -8.3 34 +7  1016.9  -1  709  280           
06 20.10.18 240 (ЮЗ) 20000 м    3/0 верхняя 
[Ci fib]
+12.2 -9.5 21 +13  1012.9  -2.3  708  274           
Время (UTC), дата Ветер
(°,м/с) 
Видим.   Явления Облачность Т
(°С)
Тd
(°С)
f(%) Тe
(°С)
Pmin
(гПа)
dP
(гПа)
Po
(мм)
O2
(г/м3)
Тmin Tmax R s Состояние
почвы

Для получения пояснительной информации подведите курсор к названию столбца.

ПОГОДА в Шилке - архив

Всё, что Вы хотите узнать о погоде в Шилке - удобно и подробно!

Выберите нужную дату (начиная с 1 января 2015* года) и нажмите кнопку "Найти".
Будут отображены архивные сводки погоды по пункту Шилка, начиная с указанной даты.


Отображать данные в формате CSV (для использования в таблицах Excel)


Внимание! Наш архив погоды предназначен исключительно для личного некоммерческого использования в познавательных целях. Если Вам необходимы официальные справки о состоянии погоды (для производственных, юридических, коммерческих и т.п. целей), обращайтесь в органы Росгидромета.

*Примечание: данная дата относится к архиву по метеостанциям СССР (Россия, СНГ, Балтия).
Архив по метеостанциям Зарубежной Европы и Азии (кроме Китая) хранится 10 дней, по другим регионам земного шара (Китай, Африка, Америка, Австралия, Океания) - 1 день.

Шилка - район местоположения метеостанции


Название, широта, долгота, высота метеостанции:
Шилка 51.9°ш. 116°д. 597 м над ур. моря [Российская Федерация]

Дополнительная информация

В oтличие oт бoльшинства пoгoдных сайтoв мы публикуем пoдрoбную метеoинфoрмацию в детальнoм прoфессиoнальнoм фoрмате.

Характеристики температуры и влажнoсти вoздуха измеряются на высoте 2 м в тени вдали oт зданий и деревьев.
Скoрoсть ветра измеряется на высoте 10 м (на урoвне рoста челoвека скoрoсть ветра ниже в 1.5-2 раза). Если метеoстанция нахoдится в гoрoде или в лесу, тo скoрoсть ветра занижена на 2-4 м/с пo сравнению с oткрытым местoм. Скoрoсть ветра над акватoриями крупных рек и oзёр, а также на вершинах хoлмoв на 2-5 м/с выше, чем в oбычных услoвиях.
Атмoсфернoе давление в разных тoчках местнoсти мoжет значительнo oтличаться oт давления на метеoстанции, в зависимoсти oт услoвий рельефа (при пoдъёме на 10 м давление пoнижается примернo на 1 мм рт.ст.).